Location: Unnamed
(45.1820°N, 67.3015°W)
Time: 02:36:53
(UTC-03:00)

ACS3 Solar Sail - Visible Passes

Search period start: 19 April 2026 00:00
Search period end: 29 April 2026 00:00
Orbit: 872 x 974 km, 97.2° (Epoch: 18 April)

Date Brightness Start Highest point End Pass type
(mag) Time Alt. Az. Time Alt. Az. Time Alt. Az.
19 Apr 3.7 01:13:28 10° NE 01:16:31 16° ENE 01:16:31 16° ENE visible
19 Apr 1.7 02:54:13 10° N 03:00:03 80° NW 03:00:03 80° NW visible
19 Apr 3.5 04:38:27 10° NNW 04:41:44 15° WNW 04:43:36 13° WNW visible
20 Apr 3.5 01:22:20 10° NE 01:26:05 20° E 01:26:05 20° E visible
20 Apr 1.7 03:03:35 10° N 03:09:36 69° WNW 03:09:37 69° WNW visible
20 Apr 3.7 04:48:23 10° NNW 04:50:54 13° NW 04:53:09 11° WNW visible
21 Apr 3.3 01:31:16 10° NE 01:35:34 24° E 01:35:34 24° E visible
21 Apr 1.9 03:12:56 10° N 03:18:51 58° WNW 03:19:06 58° W visible
21 Apr 3.8 04:58:43 10° NW 04:59:59 11° NW 05:01:16 10° WNW visible
22 Apr 3.1 01:40:15 10° NNE 01:45:00 29° E 01:45:00 29° E visible
22 Apr 2.1 03:22:13 10° N 03:28:01 49° WNW 03:28:31 48° W visible
23 Apr 2.8 01:49:12 10° NNE 01:54:21 34° E 01:54:21 34° E visible
23 Apr 2.3 03:31:28 10° N 03:37:06 41° WNW 03:37:52 40° W visible
24 Apr 2.5 01:58:08 10° NNE 02:03:38 41° E 02:03:38 41° E visible
24 Apr 2.6 03:40:41 10° N 03:46:06 35° WNW 03:47:10 33° W visible
25 Apr 2.3 02:07:03 10° NNE 02:12:51 49° E 02:12:51 49° E visible
25 Apr 2.8 03:49:51 10° N 03:55:02 30° WNW 03:56:22 28° W visible
26 Apr 2.0 02:15:56 10° NNE 02:21:56 58° E 02:22:00 58° E visible
26 Apr 3.0 03:59:00 10° N 04:03:52 26° WNW 04:05:31 23° W visible
27 Apr 4.0 00:46:23 10° ENE 00:47:28 10° E 00:47:35 10° E visible
27 Apr 1.8 02:24:46 10° NNE 02:30:52 69° E 02:31:05 69° ESE visible
27 Apr 3.2 04:08:07 10° NNW 04:12:38 22° WNW 04:14:35 19° W visible
28 Apr 3.9 00:53:45 10° ENE 00:56:27 13° E 00:56:35 13° E visible
28 Apr 1.6 02:33:33 10° NNE 02:39:41 81° E 02:40:05 77° SSE visible
28 Apr 3.4 04:17:13 10° NNW 04:21:18 19° WNW 04:23:35 16° W visible
